Regional Weather Roundup
Issued by NWS Binghamton, NY

Current Version | Previous Version | Text Only | Print | Product List | Glossary On
Versions: 1 2 3 4 5 6 7 8 9 10 11 12 13 14 15 16 17 18 19 20 21 22 23 24 25 26 27 28 29 30 31 32 33 34 35 36 37 38 39 40 41 42 43 44 45 46 47 48 49 50
000
ASUS41 KBGM 160810
RWRBGM

REGIONAL WEATHER ROUNDUP
NATIONAL WEATHER SERVICE BINGHAMTON NY
400 AM EDT MON SEP 16 2019

Note: "fair" indicates few or no clouds below 12,000 feet with no
significant weather and/or obstructions to visibility.

* = Station(s) that does not report precipitation, such as rain,
snow, etc, also no thunder or fog.

NYZ009-015>018-022>025-036-037-044>046-055>057-062-160900
...Central New York...

CITY           SKY/WX    TMP DP  RH WIND       PRES   REMARKS
Binghamton     LGT RAIN  60  60 100 SW3       30.11S FOG
Cortland       CLOUDY    59  59 100 CALM      30.11F FOG
Dansville      CLOUDY    63  62  97 CALM      30.09F
Elmira         CLOUDY    64  63  96 CALM      30.09S
Endicott       CLOUDY    63  63 100 CALM      30.10S
Ithaca         LGT RAIN  60  60 100 CALM      30.11F FOG
Hamilton       CLOUDY    57  54  88 CALM      30.12R
Monticello     CLOUDY    59  57  93 W5        30.11S
Norwich        CLOUDY    61  57  88 CALM      30.11S
Oneonta        CLOUDY    57  57 100 CALM      30.11S
Penn Yan       LGT RAIN  61  61 100 NW5       30.11S FOG
Rome           CLOUDY    59  55  87 CALM      30.13S
Seneca Falls   CLOUDY    61  59  94 N3        30.11S FOG
Sidney         RAIN      61  61 100 CALM      30.10S
Skaneateles    CLOUDY    59  57  94 NE3       30.11S
Syracuse       CLOUDY    61  57  87 NE3       30.11S
$$

PAZ038>040-043-044-047-048-072-160900
...Northeast Pennsylvania...

CITY           SKY/WX    TMP DP  RH WIND       PRES   REMARKS
Hazleton       CLOUDY    63  59  88 CALM      30.15S
Scranton       CLOUDY    65  62  90 CALM      30.09F
Towanda        MOSUNNY   63  63 100 SE3       30.10F
$$
&&
KEY
WCI = Wind Chill Index
VSB = Visibility
HX  = Heat Index
$$



USA.gov is the U.S. government's official web portal to all federal, state and local government web resources and services.